Flag for India Weather past 2 weeks in Nadiad, Gujarat, India

Now
88 °F

Scattered clouds.


Feels Like: 98 °F
Forecast: 75 / 96 °F
Wind: 6 mph from West

Location: Ahmadabad Airport

Current Time: Sep 3, 2015 at 10:34:32 AM

Latest Report: Sep 3, 2015 at 10:10 AM


Visibility: 2 mi

Pressure: 29.80 "Hg

Humidity: 66%

Dew point: 75 °F

Location of NadiadLocation

Historic Weather in Nadiad — Graph

°F

Nadiad temperature yesterday

Maximum temperature yesterday: 95 °F (at 3:10 PM)
Minimum temperature yesterday: 81 °F (at 5:10 AM)
Average temperature yesterday: 87 °F

Past Weeks' High & Low Weather Summary

 TemperatureHumidityPressure
High99 °F (Aug 29, 4:40 PM)89% (Aug 21, 6:40 AM)29.83 "Hg (Aug 21, 6:40 AM)
Low79 °F (Aug 20, 5:40 AM)44% (Aug 21, 4:40 PM)29.62 "Hg (Aug 26, 5:40 PM)
Average87 °F69%29.70 "Hg
* Reported Aug 19 8:40 AM — Sep 3 8:40 AM, Nadiad, Weather by CustomWeather, © 2015

Note: Actual official high and low records may vary slightly from our data, if they occured in-between our weather recording intervals... More about our weather records

Advertising

Nadiad weather history for previous 24 hours

 ConditionsComfort  
Time TempWeatherWind HumidityBarometerVisibility
8:40 AM
Thu, Sep 3
84 °FHaze.3 mph70%29.80 "Hg2 mi
7:40 AM81 °FHaze.3 mph74%29.77 "Hg2 mi
7:10 AM81 °FHaze.2 mph74%29.77 "Hg2 mi
6:40 AM79 °FHaze.2 mph74%29.74 "Hg2 mi
6:10 AM79 °FHaze.1 mph74%29.74 "Hg2 mi
5:40 AM79 °FHaze.3 mph74%29.74 "Hg2 mi
5:10 AM79 °FHaze.5 mph79%29.74 "Hg2 mi
4:40 AM79 °FHaze.3 mph79%29.71 "Hg2 mi
4:10 AM79 °FHaze.3 mph79%29.71 "Hg2 mi
3:40 AM81 °FHaze.3 mph79%29.71 "Hg2 mi
3:10 AM81 °FHaze.7 mph79%29.71 "Hg2 mi
2:40 AM81 °FHaze.6 mph79%29.71 "Hg2 mi
2:10 AM82 °FHaze.6 mph74%29.71 "Hg2 mi
1:40 AM82 °FHaze.7 mph74%29.71 "Hg2 mi
1:10 AM82 °FHaze.9 mph74%29.71 "Hg2 mi
12:40 AM82 °FHaze.9 mph74%29.71 "Hg2 mi
12:10 AM82 °FHaze.6 mph79%29.74 "Hg2 mi
10:40 PM
Wed, Sep 2
84 °FPassing clouds.7 mph70%29.74 "Hg2 mi
9:40 PM86 °FPassing clouds.8 mph66%29.71 "Hg2 mi
9:10 PM88 °FPassing clouds.8 mph62%29.71 "Hg2 mi
8:10 PM88 °FPassing clouds.5 mph62%29.68 "Hg2 mi
7:40 PM88 °FPassing clouds.6 mph62%29.65 "Hg2 mi
7:10 PM90 °FPassing clouds.2 mph55%29.65 "Hg2 mi
6:40 PM91 °FPassing clouds.2 mph49%29.65 "Hg3 mi
6:10 PM91 °FPassing clouds.6 mph49%29.65 "Hg3 mi
5:40 PM93 °FScattered clouds.5 mph47%29.65 "Hg3 mi
4:40 PM95 °FScattered clouds.5 mph47%29.65 "Hg3 mi
4:10 PM95 °FPartly sunny.5 mph47%29.65 "Hg3 mi
3:40 PM93 °FPartly sunny.5 mph47%29.65 "Hg3 mi
3:10 PM95 °FPartly sunny.7 mph47%29.68 "Hg3 mi
2:40 PM93 °FPartly sunny.6 mph49%29.68 "Hg3 mi
1:40 PM91 °FScattered clouds.7 mph56%29.71 "Hg4 mi
1:10 PM91 °FScattered clouds.5 mph52%29.71 "Hg4 mi
12:40 PM91 °FScattered clouds.8 mph52%29.71 "Hg4 mi
11:40 AM90 °FScattered clouds.3 mph59%29.74 "Hg3 mi
10:40 AM88 °FScattered clouds.8 mph62%29.74 "Hg2 mi
10:10 AM88 °FScattered clouds.8 mph59%29.77 "Hg2 mi
Weather by CustomWeather, © 2015

See weather overviewHow to use our weather pages